Newberry, MI

2:59 AM EST on December 13, 2017 (GMT -0500)
Luce County

Weather History for KERY - January, 2013

Change the Weather History Date:

Saturday, January 5, 2013

  Actual Average Record
Temperature  
Mean Temperature 30 °F -  
Max Temperature 33 °F 22 °F 47 °F (1939)
Min Temperature 26 °F 8 °F -16 °F (1942)
Degree Days  
Heating Degree Days 36    
Moisture  
Dew Point 24 °F    
Average Humidity 79    
Maximum Humidity 93    
Minimum Humidity 64    
Precipitation  
Precipitation 0.00 in - - ()
Sea Level Pressure  
Sea Level Pressure 30.00 in    
Wind  
Wind Speed 7 mph (SE)    
Max Wind Speed 14 mph    
Max Gust Speed 17 mph    
Visibility 10 miles    
Events      
Averages and records for this station are not official NWS values.
T = Trace of Precipitation, MM = Missing Value Source: NWS Daily Summary

Daily Weather History Graph

Daily Weather History Graph

Search for Another Location

Airport or City:

Trip Planner

Search our weather history database for the weather conditions in past years. The results will help you decide how hot, cold, wet, or windy it might be!

Date:

Astronomy

Jan. 05, 2013 Rise Set
Actual Time 8:24 AM EST 5:10 PM EST
Civil Twilight 7:50 AM EST 5:44 PM EST
Nautical Twilight 7:12 AM EST 6:22 PM EST
Astronomical Twilight 6:35 AM EST 6:59 PM EST
Moon 1:18 AM EST (1/5) 12:10 PM EST (1/5)
Length of Visible Light 9h 54m
Length of Day
8h 45m
Last Quarter, 44% of the Moon is Illuminated
Jan 5
Last Quarter
Jan 11
New
Jan 18
First Quarter
Jan 26
Full
Feb 3
Last Quarter

Hourly Weather History & Observations

Time (EST) Temp. Windchill Dew Point Humidity Pressure Visibility Wind Dir Wind Speed Gust Speed Precip Events Conditions
12:15 AM 30.2 °F 21.9 °F 21.2 °F 69% 30.06 in 10.0 mi WNW 9.2 mph - N/A   Overcast
12:34 AM 30.2 °F 23.4 °F 21.2 °F 69% 30.06 in 10.0 mi West 6.9 mph - N/A   Overcast
12:55 AM 30.2 °F 22.6 °F 21.2 °F 69% 30.05 in 10.0 mi West 8.1 mph - N/A   Overcast
1:14 AM 30.2 °F 22.6 °F 21.2 °F 69% 30.05 in 10.0 mi West 8.1 mph - N/A   Overcast
1:34 AM 30.2 °F 21.9 °F 21.2 °F 69% 30.05 in 10.0 mi WNW 9.2 mph - N/A   Overcast
1:55 AM 30.2 °F 24.3 °F 19.4 °F 64% 30.05 in 10.0 mi WNW 5.8 mph - N/A   Overcast
2:14 AM 30.2 °F 23.4 °F 19.4 °F 64% 30.06 in 10.0 mi NW 6.9 mph - N/A   Overcast
2:35 AM 30.2 °F 22.6 °F 21.2 °F 69% 30.08 in 10.0 mi NW 8.1 mph - N/A   Overcast
2:54 AM 30.2 °F 24.3 °F 21.2 °F 69% 30.10 in 10.0 mi NNW 5.8 mph - N/A   Overcast
3:14 AM 28.4 °F - 21.2 °F 74% 30.11 in 10.0 mi Calm Calm - N/A   Overcast
3:35 AM 28.4 °F 22.2 °F 21.2 °F 74% 30.11 in 10.0 mi NNW 5.8 mph - N/A   Overcast
3:54 AM 28.4 °F 22.2 °F 23.0 °F 80% 30.12 in 10.0 mi NNW 5.8 mph - N/A   Overcast
4:14 AM 28.4 °F 23.3 °F 21.2 °F 74% 30.12 in 10.0 mi NNW 4.6 mph - N/A   Overcast
4:35 AM 28.4 °F 23.3 °F 21.2 °F 74% 30.12 in 10.0 mi NNW 4.6 mph - N/A   Overcast
4:54 AM 28.4 °F - 21.2 °F 74% 30.12 in 10.0 mi Calm Calm - N/A   Overcast
5:15 AM 28.4 °F 23.3 °F 21.2 °F 74% 30.12 in 10.0 mi North 4.6 mph - N/A   Overcast
5:35 AM 26.6 °F - 21.2 °F 80% 30.13 in 10.0 mi Calm Calm - N/A   Overcast
5:54 AM 26.6 °F - 21.2 °F 80% 30.14 in 10.0 mi Calm Calm - N/A   Overcast
6:15 AM 26.6 °F - 21.2 °F 80% 30.15 in 10.0 mi Calm Calm - N/A   Overcast
6:35 AM 26.6 °F - 21.2 °F 80% 30.15 in 10.0 mi Calm Calm - N/A   Overcast
6:54 AM 26.6 °F 22.6 °F 21.2 °F 80% 30.15 in 10.0 mi NNE 3.5 mph - N/A   Overcast
7:15 AM 26.6 °F 21.2 °F 21.2 °F 80% 30.14 in 10.0 mi NE 4.6 mph - N/A   Overcast
7:34 AM 26.6 °F 21.2 °F 21.2 °F 80% 30.14 in 10.0 mi NE 4.6 mph - N/A   Overcast
7:54 AM 26.6 °F 21.2 °F 21.2 °F 80% 30.15 in 10.0 mi ENE 4.6 mph - N/A   Overcast
8:34 AM 26.6 °F 22.6 °F 21.2 °F 80% 30.14 in 10.0 mi East 3.5 mph - N/A   Overcast
8:54 AM 26.6 °F 22.6 °F 21.2 °F 80% 30.13 in 10.0 mi East 3.5 mph - N/A   Overcast
9:15 AM 26.6 °F 19.1 °F 21.2 °F 80% 30.13 in 10.0 mi East 6.9 mph - N/A   Overcast
9:34 AM 26.6 °F 20.0 °F 21.2 °F 80% 30.12 in 10.0 mi ENE 5.8 mph - N/A   Overcast
9:54 AM 26.6 °F 19.1 °F 21.2 °F 80% 30.12 in 10.0 mi East 6.9 mph - N/A   Overcast
10:15 AM 26.6 °F 20.0 °F 21.2 °F 80% 30.12 in 10.0 mi East 5.8 mph - N/A   Overcast
10:55 AM 26.6 °F 21.2 °F 21.2 °F 80% 30.11 in 10.0 mi ESE 4.6 mph - N/A   Overcast
11:15 AM 28.4 °F 22.2 °F 21.2 °F 74% 30.11 in 10.0 mi ESE 5.8 mph - N/A   Overcast
11:55 AM 30.2 °F 21.3 °F 23.0 °F 75% 30.09 in 10.0 mi SE 10.4 mph - N/A   Mostly Cloudy
12:15 PM 30.2 °F 21.9 °F 23.0 °F 75% 30.07 in 10.0 mi SSE 9.2 mph 17.3 mph N/A   Overcast
12:34 PM 32.0 °F 26.4 °F 24.8 °F 75% 30.05 in 10.0 mi SSE 5.8 mph - N/A   Overcast
12:55 PM 32.0 °F 23.0 °F 24.8 °F 75% 30.04 in 10.0 mi South 11.5 mph - N/A   Overcast
1:14 PM 30.2 °F 20.8 °F 24.8 °F 80% 30.03 in 10.0 mi SSE 11.5 mph - N/A   Overcast
1:34 PM 30.2 °F 21.9 °F 24.8 °F 80% 30.02 in 10.0 mi SE 9.2 mph - N/A   Overcast
1:54 PM 30.2 °F 22.6 °F 24.8 °F 80% 30.00 in 10.0 mi SE 8.1 mph - N/A   Overcast
2:14 PM 32.0 °F 24.8 °F 24.8 °F 75% 29.99 in 10.0 mi SE 8.1 mph - N/A   Overcast
2:35 PM 32.0 °F 22.1 °F 24.8 °F 75% 29.99 in 10.0 mi SSE 13.8 mph - N/A   Overcast
2:54 PM 32.0 °F 24.2 °F 24.8 °F 75% 29.98 in 10.0 mi SSE 9.2 mph - N/A   Overcast
3:14 PM 30.2 °F 20.8 °F 24.8 °F 80% 29.98 in 10.0 mi SSE 11.5 mph - N/A   Overcast
3:35 PM 30.2 °F 20.2 °F 24.8 °F 80% 29.97 in 10.0 mi SE 12.7 mph - N/A   Overcast
3:54 PM 30.2 °F 21.9 °F 24.8 °F 80% 29.96 in 10.0 mi SSE 9.2 mph - N/A   Overcast
4:14 PM 30.2 °F 23.4 °F 24.8 °F 80% 29.95 in 10.0 mi ESE 6.9 mph - N/A   Overcast
4:35 PM 30.2 °F 21.9 °F 24.8 °F 80% 29.94 in 10.0 mi ESE 9.2 mph - N/A   Overcast
4:54 PM 30.2 °F 21.9 °F 24.8 °F 80% 29.92 in 10.0 mi ESE 9.2 mph - N/A   Overcast
5:15 PM 30.2 °F 21.3 °F 24.8 °F 80% 29.92 in 10.0 mi SE 10.4 mph - N/A   Overcast
5:54 PM 30.2 °F 21.3 °F 24.8 °F 80% 29.89 in 10.0 mi ESE 10.4 mph - N/A   Overcast
6:15 PM 30.2 °F 20.8 °F 24.8 °F 80% 29.88 in 10.0 mi ESE 11.5 mph - N/A   Overcast
6:34 PM 30.2 °F 24.3 °F 24.8 °F 80% 29.88 in 10.0 mi SE 5.8 mph - N/A   Overcast
6:55 PM 30.2 °F 22.6 °F 24.8 °F 80% 29.87 in 10.0 mi ESE 8.1 mph - N/A   Overcast
7:15 PM 30.2 °F 21.3 °F 24.8 °F 80% 29.86 in 10.0 mi SE 10.4 mph - N/A   Overcast
7:34 PM 30.2 °F 23.4 °F 26.6 °F 86% 29.86 in 10.0 mi SE 6.9 mph - N/A   Overcast
7:55 PM 30.2 °F 22.6 °F 26.6 °F 86% 29.86 in 10.0 mi SE 8.1 mph - N/A   Overcast
8:14 PM 30.2 °F 23.4 °F 26.6 °F 86% 29.85 in 10.0 mi SE 6.9 mph - N/A   Overcast
8:34 PM 30.2 °F 24.3 °F 26.6 °F 86% 29.85 in 10.0 mi SE 5.8 mph - N/A   Overcast
8:55 PM 30.2 °F 23.4 °F 26.6 °F 86% 29.84 in 10.0 mi SE 6.9 mph - N/A   Overcast
9:14 PM 30.2 °F 24.3 °F 26.6 °F 86% 29.84 in 10.0 mi ESE 5.8 mph - N/A   Overcast
9:34 PM 30.2 °F 23.4 °F 28.4 °F 93% 29.83 in 10.0 mi SE 6.9 mph - N/A   Overcast
9:55 PM 30.2 °F 21.3 °F 28.4 °F 93% 29.81 in 10.0 mi SE 10.4 mph - N/A   Overcast
10:14 PM 32.0 °F 24.2 °F 28.4 °F 87% 29.81 in 10.0 mi SSE 9.2 mph - N/A   Overcast
10:35 PM 32.0 °F 27.5 °F 28.4 °F 87% 29.80 in 7.0 mi South 4.6 mph - N/A   Overcast
10:55 PM 33.8 °F 29.6 °F 30.2 °F 87% 29.80 in 7.0 mi South 4.6 mph - N/A   Overcast
11:14 PM 33.8 °F 25.8 °F 28.4 °F 81% 29.80 in 7.0 mi South 10.4 mph - N/A   Overcast
11:35 PM 30.2 °F 22.6 °F 24.8 °F 80% 29.80 in 10.0 mi SW 8.1 mph - N/A   Mostly Cloudy
11:55 PM 28.4 °F 22.2 °F 24.8 °F 86% 29.79 in 10.0 mi WSW 5.8 mph - N/A   Scattered Clouds